SCP
0 0 0 0 0 0 0 0 0 0 0 0 0 0 0 0 0 0 0 0 0 0 0 1 1 1 1 1 1 1 1 1 1 1 1 1 1 1 1 1 1 1 1 1
0 0 0 0 0 0 0 0 0 0 0 0 0 0 0 0 0 0 0 0 0 0 0 0 1 1 1 1 1 1 1 1 1 1 1 1 1 1 1 1 1 1 1 1
0 0 0 0 0 0 0 0 0 0 0 0 0 0 0 0 0 0 0 0 0 0 0 0 0 0 0 0 0 1 1 1 1 1 1 1 1 1 1 1 1 1 1 1
0 0 0 0 0 0 0 0 0 0 0 0 0 0 0 0 0 0 0 0 0 0 0 0 0 0 0 0 0 0 1 1 1 1 1 1 1 1 1 1 1 1 1 1
0 0 0 0 0 0 0 0 0 0 0 0 0 0 0 0 0 0 0 0 0 0 0 0 0 0 0 0 0 0 0 0 1 1 1 1 1 1 1 1 1 1 1 1
0 0 0 0 0 0 0 0 0 0 0 0 0 0 0 0 0 0 0 0 0 0 0 0 0 0 0 0 0 0 0 0 0 1 1 1 1 1 1 1 1 1 1 1
0 0 0 0 0 0 0 0 0 0 0 0 0 0 0 0 0 0 0 0 0 0 0 0 0 0 0 0 0 0 0 0 0 0 1 1 1 1 1 1 1 1 1 1
0 0 0 0 0 0 0 0 0 0 0 0 0 0 0 0 0 0 0 0 0 0 0 0 0 0 0 0 0 0 0 0 0 0 0 0 0 1 1 1 1 0 0 0
0 0 0 0 0 0 0 0 0 0 0 0 0 0 0 0 0 0 0 0 0 0 0 0 0 0 0 0 0 0 0 0 0 0 0 0 0 0 0 0 0 0 0 0
0 0 0 0 0 0 0 0 0 0 0 0 0 0 0 0 0 0 0 0 0 0 0 0 0 0 0 0 0 0 0 0 0 0 0 0 0 0 0 0 0 0 0 0
0 0 0 0 0 0 0 0 0 0 0 0 0 0 0 0 0 0 0 0 0 0 0 0 0 0 0 0 0 0 0 0 0 0 0 0 0 0 0 0 0 0 0 0
0 0 0 0 0 0 0 0 0 0 0 0 0 0 0 0 0 0 0 0 0 0 0 0 0 0 0 0 0 0 0 0 0 0 0 0 0 0 0 0 0 0 0 0
0 0 0 0 0 0 0 0 0 0 0 0 0 0 0 0 0 0 0 0 0 0 0 0 0 0 0 0 0 0 0 0 0 0 0 0 0 0 0 0 0 0 0 0
0 0 0 0 0 0 0 0 0 0 0 0 0 0 0 0 0 0 0 0 0 0 0 0 0 0 0 0 0 0 0 0 0 0 0 0 0 0 0 0 0 0 0 0
0 0 0 0 0 0 0 0 0 0 0 0 0 0 0 0 0 0 0 0 0 0 0 0 0 0 0 0 0 0 0 0 0 0 0 0 0 0 0 0 0 0 0 0
0 0 0 0 0 0 0 0 0 0 0 0 0 0 0 0 0 0 0 0 0 0 0 0 0 0 0 0 0 0 0 0 0 0 0 0 0 0 0 0 0 0 0 0
0 0 0 0 0 0 0 0 0 0 0 0 0 0 0 0 0 0 0 0 0 0 0 0 0 0 0 0 0 0 0 0 0 0 0 0 0 0 0 0 0 0 0 0
0 0 0 0 0 0 0 0 0 0 0 0 0 0 0 0 0 0 0 0 0 0 0 0 0 0 0 0 0 0 0 0 0 0 0 0 0 0 0 0 0 0 0 0
0 0 0 0 0 0 0 0 0 0 0 0 0 0 0 0 0 0 0 0 0 0 0 0 0 0 0 0 0 0 0 0 0 0 0 0 0 0 0 0 0 0 0 0
0 0 0 0 0 0 0 0 0 0 0 0 0 0 0 0 0 0 0 0 0 0 0 0 0 0 0 0 0 0 0 0 0 0 0 0 0 0 0 0 0 0 0 0
0 0 0 0 0 0 0 0 0 0 0 0 0 0 0 0 0 0 0 0 0 0 0 0 0 0 0 0 0 0 0 0 0 0 0 0 0 0 0 0 0 0 0 0
0 0 0 0 0 0 0 0 0 0 0 0 0 0 0 0 0 0 0 0 0 0 0 0 0 0 0 0 0 0 0 0 0 0 0 0 0 0 0 0 0 0 0 0
0 0 0 0 0 0 0 0 0 0 0 0 0 0 0 0 0 0 0 0 0 0 0 0 0 0 0 0 0 0 0 0 0 0 0 0 0 0 0 0 0 0 0 0
0 0 0 0 0 0 0 0 0 0 0 0 0 0 0 0 0 0 0 0 0 0 0 0 0 0 0 0 0 0 0 0 0 0 0 0 0 0 0 0 0 0 0 0
0 0 0 0 0 0 0 0 0 0 0 0 0 0 0 0 0 0 0 0 0 0 0 0 0 0 0 0 0 0 0 0 0 0 0 0 0 0 0 0 0 0 0 0
0 0 0 0 0 0 0 0 0 0 0 0 0 0 0 0 0 0 0 0 0 0 0 0 0 0 0 0 0 0 0 0 0 0 0 0 0 0 0 0 0 0 0 0
Wind_Speed
8 9 9 6 4 2 4 6 7 6 4 4 6 8 7 6 5 6 6 6 6 7 7 7 7 7 7 6 4 3 2 2 1 1 2 3 3 3 3 3 4 5 5 6
9 9 4 3 4 5 7 8 8 7 5 3 6 6 6 6 5 5 5 5 6 6 7 7 7 7 7 6 5 4 3 2 1 0 1 2 2 2 3 2 2 3 4 4
7 5 5 6 7 8 8 7 6 7 7 6 7 9 9 8 7 6 5 5 5 5 6 6 7 7 7 6 5 4 4 3 2 2 1 1 1 3 3 3 2 2 2 3
5 5 6 8 8 8 8 6 5 6 9 7 8 7 10 11 9 8 6 5 5 5 5 6 7 7 7 6 5 4 4 3 3 2 1 2 3 3 3 2 2 2 1 2
6 6 7 7 6 6 2 4 6 7 8 6 8 9 6 10 10 9 8 6 5 5 5 6 6 7 7 7 6 5 4 4 3 2 1 3 4 2 1 1 2 1 0 1
4 4 4 3 3 4 4 5 6 8 9 10 6 8 4 6 5 7 9 7 6 5 5 5 5 6 6 7 6 5 5 5 4 3 2 2 2 1 1 2 2 1 1 0
8 8 6 5 6 8 8 8 7 9 8 6 4 7 0 5 3 5 8 8 7 5 4 4 6 6 7 7 7 6 5 5 5 4 3 2 1 1 1 1 1 1 1 1
9 9 7 6 6 5 7 9 7 5 5 3 6 6 4 6 5 5 7 8 7 5 4 5 5 6 6 7 6 6 5 5 5 4 3 2 2 1 1 1 1 1 1 1
5 5 6 3 3 5 6 7 5 8 8 8 4 3 6 6 6 7 8 8 7 6 5 4 5 5 6 6 6 6 5 5 4 4 3 3 3 4 3 3 3 3 3 3
3 4 6 5 6 3 4 3 4 7 6 7 5 6 3 8 9 9 8 8 7 6 5 4 5 5 6 6 5 5 5 4 4 4 4 4 4 4 4 5 6 5 5 5
5 5 5 7 6 4 5 5 6 6 7 7 6 1 5 2 5 7 7 7 7 6 5 4 4 5 5 5 5 5 5 5 5 5 5 5 5 6 6 6 7 6 6 6
3 5 5 5 1 2 5 5 5 6 6 7 8 1 7 3 3 6 7 8 8 6 5 5 4 4 5 6 6 5 5 5 5 5 6 6 7 7 8 8 8 8 8 8
2 5 6 7 7 6 5 5 6 6 6 7 9 0 7 5 5 7 9 9 8 6 5 5 4 4 5 5 5 5 5 5 5 5 6 7 8 9 9 9 9 8 8 9
5 5 7 6 2 2 5 6 7 9 8 8 8 5 3 4 6 8 9 9 8 6 5 5 4 4 4 4 5 5 6 6 5 6 8 8 8 9 9 9 9 9 9 9
4 6 5 5 4 5 7 8 8 9 9 10 8 7 2 4 6 9 10 10 8 7 6 5 4 4 4 4 5 5 6 6 6 7 8 8 8 8 9 10 10 9 9 10
3 4 5 6 5 6 8 7 8 8 8 9 8 4 6 7 9 10 10 10 9 8 6 5 5 5 4 5 5 6 6 6 6 8 9 8 8 9 9 9 9 10 10 11
3 4 5 5 4 8 7 3 4 4 4 6 7 3 8 9 9 9 10 9 9 8 7 7 6 5 5 5 5 6 6 6 7 8 9 8 8 9 9 9 10 10 10 10
5 5 4 4 5 6 3 4 3 5 3 3 3 6 6 8 8 7 8 9 9 9 8 7 6 6 6 6 5 6 6 7 8 8 8 8 9 9 9 10 10 10 9 9
6 5 5 5 5 3 3 3 4 5 2 4 4 8 9 11 10 7 6 7 8 8 8 7 7 7 6 6 6 6 6 7 8 8 8 8 9 9 9 10 10 8 8 9
6 6 6 5 5 2 5 6 5 6 2 5 5 9 11 11 5 7 9 9 9 9 8 8 8 7 7 6 6 6 6 7 8 8 8 8 8 9 10 10 9 7 8 8
5 5 6 6 5 1 7 6 5 4 5 3 4 8 10 5 5 12 13 11 10 10 9 9 8 7 7 6 6 7 8 8 8 8 8 8 8 8 9 9 7 7 7 8
3 3 3 4 4 3 9 6 6 6 4 2 6 8 8 9 13 14 13 13 12 11 10 9 8 8 7 6 7 8 8 8 8 8 9 9 8 8 8 8 7 7 7 8
2 4 4 4 4 6 5 5 5 3 2 4 7 9 10 12 14 14 13 13 12 11 10 9 9 8 7 6 6 9 8 7 8 8 9 8 8 8 8 7 7 6 5 6
1 2 4 2 3 5 5 5 5 5 4 6 8 10 12 13 15 14 13 12 12 11 10 9 10 9 8 7 7 9 8 7 8 9 9 8 8 8 7 5 5 5 5 5
4 4 4 2 3 3 5 6 6 6 7 9 9 10 12 15 15 14 13 12 11 11 9 9 9 9 9 8 8 8 8 8 9 9 8 8 8 8 7 7 7 6 8 7
2 4 4 4 5 4 4 4 4 6 7 9 10 11 12 13 15 14 13 12 11 11 9 9 9 9 9 9 9 9 8 8 8 8 7 7 7 6 7 8 8 13 10 10
Wind_Direction
189 213 204 185 227 272 198 198 170 131 129 182 157 140 133 140 149 130 117 100 90 77 64 52 45 39 43 44 45 51 45 45 43 190 213 227 232 234 233 234 236 230 231 227
195 206 181 181 198 215 204 198 167 142 137 190 157 153 144 149 140 123 122 109 94 82 68 51 42 40 38 37 31 29 27 22 7 340 257 249 259 251 244 240 233 238 233 233
212 129 154 195 193 204 204 209 180 160 154 180 187 189 174 159 152 144 134 116 102 82 65 52 43 38 31 27 23 20 14 8 357 343 268 239 235 238 228 221 221 241 243 239
205 156 193 208 200 211 194 193 199 188 209 191 218 237 175 172 177 175 160 141 118 94 74 55 42 35 28 23 21 21 17 17 8 348 307 255 247 247 251 244 223 208 233 253
177 180 200 205 191 217 167 162 206 215 237 239 215 257 167 172 195 183 169 152 125 97 74 59 45 34 26 19 18 20 18 19 11 351 318 264 253 250 248 222 200 194 171 248
195 195 230 211 179 198 164 174 190 221 232 238 223 255 222 171 194 166 160 153 135 110 83 61 48 37 28 21 19 18 16 16 7 355 335 295 274 245 232 218 194 189 155 80
188 186 189 205 192 181 206 217 215 213 218 227 155 249 234 103 114 152 156 149 139 123 95 64 42 30 23 18 15 12 12 14 10 8 7 2 6 280 239 224 203 190 137 73
189 174 174 193 228 203 211 243 259 264 251 221 180 240 103 107 110 128 140 138 136 124 94 68 45 29 21 17 13 11 10 15 13 13 16 23 34 27 37 41 88 94 76 58
208 161 146 171 222 245 213 238 295 280 268 268 232 179 140 147 158 157 150 147 142 123 97 71 49 33 22 17 16 13 15 21 19 20 28 46 52 55 61 66 72 70 70 72
262 208 164 163 189 189 280 252 239 256 266 263 240 231 206 172 184 177 173 163 142 125 108 80 52 35 25 21 23 23 23 31 35 40 41 54 58 66 74 74 76 77 75 76
245 237 186 195 220 206 200 215 253 265 282 284 281 299 62 118 177 181 173 156 142 133 114 88 63 43 33 31 36 33 35 45 50 51 53 60 62 67 68 71 72 76 75 73
232 258 234 207 141 303 260 258 251 263 263 265 283 14 83 80 123 150 148 141 133 127 113 93 73 54 43 37 38 41 40 51 55 61 67 67 70 71 71 72 73 75 77 74
228 240 233 200 186 196 225 230 248 266 274 269 273 278 109 119 126 132 136 135 132 128 115 97 79 59 46 41 41 44 50 60 63 71 77 74 72 73 74 74 75 75 77 76
266 246 262 269 297 257 244 240 239 251 265 273 280 302 151 151 148 143 140 138 136 131 121 102 86 69 58 52 49 53 59 62 68 74 75 74 73 75 77 77 74 75 78 78
271 244 252 274 281 267 264 263 254 255 271 283 298 310 1 145 153 147 144 142 140 137 127 113 100 85 72 67 67 66 69 67 70 78 79 78 79 79 79 79 78 77 77 79
299 266 256 247 238 257 261 261 258 261 272 279 285 312 80 114 129 142 149 150 148 144 136 126 115 101 87 78 78 79 77 75 79 82 83 84 85 83 81 81 81 79 77 77
276 257 257 251 246 258 243 273 278 273 290 299 308 41 123 135 144 151 153 155 152 148 143 135 125 114 99 87 88 86 81 81 83 82 84 85 87 88 88 87 85 84 83 82
274 269 264 266 254 244 66 40 330 296 312 345 26 101 129 129 129 133 145 152 150 145 141 135 129 119 109 104 99 93 89 87 88 85 86 90 92 90 89 88 85 85 86 88
235 262 264 265 260 246 120 44 347 310 342 60 98 119 118 121 122 122 131 138 138 135 131 129 126 121 117 111 106 101 98 97 96 92 91 94 97 99 97 91 87 85 89 90
196 236 257 261 273 278 61 26 342 285 166 86 126 143 148 165 178 139 142 137 131 129 130 131 129 126 122 119 118 113 105 103 100 98 96 95 96 98 97 95 92 89 90 90
194 212 237 254 260 54 41 353 297 292 38 66 144 153 164 175 73 120 136 135 132 132 134 135 130 122 119 122 120 114 105 101 103 103 99 97 98 100 100 99 97 100 98 93
276 251 234 251 260 58 23 353 8 17 25 102 138 144 137 106 111 127 136 136 137 138 138 135 127 120 120 125 124 112 104 103 105 106 105 102 104 105 104 103 101 103 107 106
322 348 329 335 27 42 21 14 18 360 60 115 132 133 131 129 131 136 138 138 139 137 133 129 126 122 119 122 121 112 110 114 115 112 108 106 104 102 106 109 111 115 118 114
45 346 294 304 54 47 50 44 48 57 82 112 126 133 137 135 138 139 138 138 138 135 134 134 132 127 121 119 115 113 116 117 113 109 106 108 107 107 105 106 107 106 107 112
323 309 298 304 53 76 66 47 58 79 102 114 121 131 136 137 139 140 140 139 136 133 132 133 131 128 125 124 118 118 120 120 115 110 108 109 106 102 98 80 52 61 60 43
291 320 327 5 20 0 44 62 84 107 117 126 130 131 137 140 140 139 136 136 135 134 135 135 131 128 126 126 122 122 125 126 125 121 119 116 116 116 117 113 96 54 57 59